Wind_Speed
12 11 10 9 8 7 6 6 5 4 4 3 3 3 2 2 2 1 1 1 0 1 1 1 2 3 3 3 3 3 3 4 4 4 4 4 4 5 6 7 7 7 7
12 13 11 11 9 8 7 6 5 5 5 5 4 4 4 3 3 3 2 2 2 2 1 1 1 2 3 2 2 2 2 2 3 3 3 3 4 5 5 6 6 6 6
13 13 12 11 10 8 7 7 6 6 5 5 5 5 5 4 4 4 4 3 3 3 3 2 2 2 3 3 2 2 1 1 1 2 2 3 3 4 5 5 6 6 6
13 13 12 11 10 9 8 7 7 6 6 6 6 6 5 5 5 5 5 4 4 4 4 4 3 3 3 3 3 3 2 2 1 0 1 2 3 4 4 5 5 5 5
14 13 13 11 10 10 8 8 7 7 7 6 6 6 6 6 6 6 6 6 5 5 5 5 5 5 5 5 4 4 4 3 2 2 2 2 3 3 4 4 4 5 4
15 15 13 11 10 9 9 8 8 8 7 7 7 7 7 7 7 7 8 7 7 7 7 7 7 7 6 6 6 6 5 5 4 4 4 3 3 3 3 4 4 5 4
15 14 14 12 11 10 9 9 9 8 8 8 8 8 8 8 8 8 8 8 8 9 9 9 8 8 8 8 8 8 7 7 7 6 6 5 5 4 4 4 5 5 5
15 15 15 13 11 10 9 9 9 9 9 9 9 9 9 9 9 8 8 9 9 8 9 9 8 9 9 8 8 9 8 8 8 8 7 7 6 6 5 5 5 6 6
16 16 15 14 12 11 10 10 10 9 10 10 10 10 10 9 9 9 9 9 8 8 8 8 9 9 10 10 10 10 10 9 9 9 9 9 8 7 7 7 7 7 8
16 16 15 14 13 12 11 10 10 10 11 11 10 10 10 10 9 9 9 9 8 8 8 8 9 9 10 11 11 11 11 11 10 11 11 10 10 9 8 8 8 8 9
16 17 17 15 14 13 12 11 11 11 11 11 11 10 10 10 10 9 8 8 8 8 8 8 8 9 9 10 11 11 11 11 11 12 12 10 10 11 10 9 9 10 11
19 18 17 16 15 13 12 12 12 12 11 11 11 10 10 10 8 8 8 8 8 8 8 8 8 8 9 9 10 11 12 11 11 11 12 12 12 12 12 11 10 11 11
18 19 19 17 15 14 13 12 11 11 11 10 10 10 9 8 7 6 7 6 6 7 7 7 8 8 7 8 9 10 11 11 11 12 12 12 12 13 13 13 12 12 12
18 18 18 17 15 14 13 12 11 10 10 9 9 8 7 6 6 6 6 6 6 6 6 6 6 6 6 7 8 8 9 11 10 10 11 11 13 13 14 13 13 13 12
19 18 17 17 16 15 13 12 11 10 9 9 8 6 6 6 6 6 5 5 5 5 6 6 5 5 5 6 6 7 8 9 10 8 10 11 12 13 14 15 13 13 13
18 18 17 15 15 14 12 12 10 9 8 7 7 6 5 4 4 4 4 5 5 5 4 4 5 5 5 5 5 6 7 7 8 9 9 10 11 11 13 14 14 13 14
19 18 18 16 15 14 12 11 9 8 7 6 6 4 3 3 3 3 4 4 4 4 4 4 4 4 4 4 4 4 5 6 7 8 8 9 9 10 11 12 14 14 14
18 17 17 16 15 14 12 11 9 8 6 5 4 4 3 2 2 3 3 3 3 3 4 4 4 4 4 4 4 4 4 5 6 6 7 8 8 9 10 11 13 14 14
17 17 17 17 16 14 13 11 9 7 6 5 4 3 2 1 1 2 2 2 3 4 4 4 4 4 4 5 4 4 4 5 6 7 7 7 8 9 9 10 11 13 14
15 15 15 15 14 13 12 11 9 8 7 6 4 3 2 1 0 1 2 2 3 4 4 4 5 5 5 5 5 5 5 5 5 6 7 8 8 8 9 10 11 11 12
14 15 15 15 14 13 11 10 10 9 7 6 5 3 2 1 1 1 2 3 4 4 5 5 6 6 6 6 6 6 6 6 6 7 7 8 8 9 9 10 11 11 11
13 14 16 15 13 13 11 10 10 9 8 7 5 4 3 3 2 2 2 3 4 5 5 6 6 7 8 8 8 8 7 7 7 7 7 8 8 9 9 10 11 11 11
11 12 14 14 14 14 12 11 9 8 8 7 6 5 4 4 2 2 1 2 3 4 5 6 6 7 8 8 9 8 8 9 9 9 9 9 9 9 10 10 11 11 12
9 11 13 14 14 14 12 11 10 9 8 8 7 6 5 4 3 2 1 1 1 2 3 4 5 7 8 8 9 9 10 10 10 9 9 10 10 10 11 11 11 11 12
8 10 11 13 14 13 12 11 11 11 9 9 8 7 6 5 4 3 2 1 1 2 3 5 6 7 8 9 9 10 11 11 11 11 11 11 11 11 12 12 12 12 13
8 9 11 12 13 12 11 11 12 11 10 10 9 8 7 6 5 4 4 3 3 4 5 6 7 9 9 10 10 11 12 13 13 13 13 12 12 12 13 14 14 14 14
Wind_Direction
230 226 223 221 222 226 232 236 238 243 246 244 239 235 233 226 220 223 233 262 291 342 11 15 13 10 12 15 19 25 35 41 47 58 68 72 80 101 118 126 119 118 113
231 227 226 224 225 228 234 237 243 247 253 256 257 255 254 253 255 258 265 272 278 284 292 308 325 341 348 350 348 355 17 41 44 57 69 79 93 110 119 129 127 124 120
229 229 228 226 227 230 236 243 248 252 259 265 267 265 264 267 271 273 274 276 277 281 281 284 292 308 319 321 316 311 316 4 42 70 80 92 106 123 123 132 135 133 130
230 231 230 227 230 234 239 245 251 257 262 265 268 270 272 276 278 279 278 277 278 277 277 277 278 284 290 292 288 279 270 255 252 206 104 113 129 137 137 140 144 146 142
229 228 226 228 233 238 240 248 255 258 263 265 268 273 276 277 279 278 278 278 276 274 274 274 273 273 275 275 273 269 262 252 242 236 222 181 162 154 156 157 160 163 159
223 222 222 230 236 240 242 250 256 260 263 266 269 273 275 276 276 277 279 278 276 273 272 272 270 268 268 265 265 263 258 251 240 238 236 215 199 192 184 179 177 180 179
220 220 220 229 235 239 244 248 254 258 262 267 272 274 274 275 277 280 280 278 276 276 274 271 268 264 262 260 259 259 257 251 242 237 237 231 222 216 211 207 200 194 196
218 219 221 225 230 235 240 248 254 257 262 267 272 275 275 276 279 280 280 279 278 277 275 272 267 261 259 256 255 254 255 251 245 240 240 239 235 229 224 222 217 213 209
221 220 217 219 225 232 237 245 253 256 262 267 270 274 276 278 280 279 279 280 279 278 278 274 269 263 259 257 255 254 254 252 249 244 239 240 241 238 233 232 231 223 216
226 218 214 217 224 231 236 243 251 257 263 266 268 272 275 276 276 277 278 278 277 276 279 277 270 264 261 257 255 255 254 255 252 247 240 239 241 241 238 236 232 227 224
225 218 216 218 224 230 236 244 252 257 262 264 267 271 275 276 276 274 276 278 278 277 278 275 271 267 265 262 257 254 253 253 247 242 241 243 242 242 240 239 239 237 233
225 221 217 220 226 232 237 244 249 255 259 262 266 272 276 280 282 283 282 280 278 278 277 275 275 271 268 267 260 255 252 254 251 247 245 246 246 245 244 245 245 243 241
225 225 221 223 225 232 239 248 255 259 261 263 270 273 278 282 284 285 283 286 287 284 283 282 279 275 270 270 266 259 253 249 250 244 247 249 249 249 247 249 249 248 247
233 234 228 225 228 232 239 249 255 258 263 269 272 275 280 287 289 289 290 293 295 292 290 291 289 287 280 273 272 268 260 255 256 249 248 250 249 249 249 250 251 250 249
236 238 242 232 230 235 240 246 253 258 262 267 271 275 285 290 289 287 293 298 299 299 298 297 293 294 294 284 279 271 269 264 259 261 254 254 250 250 252 252 253 253 252
239 240 236 235 233 236 242 249 251 256 257 256 261 271 285 294 298 301 309 314 312 308 306 309 308 306 302 298 290 281 274 268 270 266 262 259 259 256 253 254 255 258 255
236 238 235 232 230 235 241 244 246 246 245 250 255 268 284 294 309 320 324 326 328 330 328 330 331 326 320 315 307 301 290 284 285 281 272 267 266 259 256 257 257 260 261
236 235 234 233 232 233 235 239 238 235 234 238 248 267 278 293 318 337 342 353 2 360 359 357 355 352 345 337 328 321 313 306 300 296 283 276 273 268 265 265 263 262 262
234 233 232 232 232 231 234 233 233 228 222 230 242 250 261 290 327 356 8 20 21 17 16 14 11 11 4 358 350 338 324 312 313 305 300 294 287 282 276 277 277 271 267
231 231 232 232 233 233 232 231 228 221 223 228 229 223 224 233 69 38 38 41 35 30 29 30 26 28 23 15 9 359 344 324 319 312 307 302 298 291 283 282 283 280 276
231 229 232 234 235 234 232 228 225 219 223 221 213 204 195 171 138 94 77 61 50 44 40 39 36 34 32 26 18 10 359 346 335 323 315 310 303 297 292 288 283 282 282
232 230 230 231 234 229 225 225 224 219 218 215 205 199 192 172 153 113 85 69 57 50 48 46 41 34 28 23 18 13 3 354 349 341 333 322 316 309 303 297 292 286 286
227 228 230 231 232 227 226 222 219 215 214 211 203 199 190 179 166 147 121 81 59 49 45 41 36 27 20 15 12 8 2 357 352 347 341 331 322 317 311 303 300 294 291
229 230 231 229 229 224 216 216 216 211 207 205 203 199 193 188 183 180 166 111 60 35 23 16 10 5 2 0 359 358 356 353 350 343 337 330 325 321 317 313 306 299 295
231 226 227 225 220 218 216 214 211 208 206 206 206 205 203 205 205 211 218 227 284 325 335 340 339 342 346 348 348 347 347 346 345 341 335 329 323 320 318 316 312 306 301
233 227 230 227 222 222 218 213 210 209 210 210 212 212 214 219 224 235 245 253 271 291 305 316 320 325 330 333 335 336 336 336 336 336 334 330 324 319 316 315 312 308 304
Height
5891 5891 5892 5894 5895 5896 5897 5897 5898 5898 5898 5898 5898 5898 5898 5898 5898 5898 5898 5898 5897 5897 5897 5897 5896 5896 5895 5895 5895 5894 5894 5894 5894 5893 5894 5894 5894 5895 5895 5896 5897 5898 5898
5889 5890 5891 5893 5894 5895 5896 5897 5897 5898 5898 5898 5898 5898 5898 5898 5898 5898 5898 5897 5897 5897 5897 5896 5896 5896 5895 5895 5895 5895 5894 5894 5894 5894 5894 5894 5895 5895 5896 5897 5898 5899 5900
5886 5888 5890 5892 5893 5894 5895 5896 5897 5897 5897 5898 5898 5898 5898 5897 5897 5897 5897 5897 5897 5897 5896 5896 5896 5896 5895 5895 5895 5894 5894 5895 5895 5894 5894 5894 5895 5896 5897 5898 5899 5900 5901
5885 5887 5889 5891 5892 5893 5894 5895 5896 5896 5897 5897 5897 5897 5897 5897 5896 5896 5896 5896 5896 5896 5896 5896 5895 5895 5895 5895 5894 5894 5894 5895 5895 5895 5894 5895 5896 5897 5897 5898 5899 5900 5901
5884 5886 5887 5889 5891 5892 5893 5894 5895 5895 5896 5896 5896 5896 5896 5896 5895 5895 5895 5895 5895 5895 5895 5895 5894 5894 5894 5894 5894 5894 5894 5894 5895 5895 5894 5895 5896 5897 5898 5899 5900 5901 5902
5882 5884 5886 5888 5890 5891 5892 5893 5894 5894 5895 5895 5895 5895 5895 5894 5894 5894 5894 5894 5894 5893 5893 5893 5893 5893 5893 5893 5893 5893 5893 5894 5894 5895 5895 5895 5896 5897 5898 5898 5899 5900 5901
5880 5882 5884 5887 5888 5890 5891 5892 5893 5893 5894 5894 5894 5894 5893 5893 5893 5893 5893 5892 5892 5892 5892 5892 5892 5892 5891 5891 5891 5892 5892 5893 5893 5894 5894 5895 5896 5896 5897 5898 5899 5900 5901
5878 5880 5882 5885 5887 5888 5889 5890 5891 5892 5892 5893 5893 5893 5892 5892 5892 5892 5891 5891 5890 5890 5890 5890 5890 5890 5890 5890 5890 5890 5891 5891 5892 5893 5894 5894 5895 5896 5897 5898 5899 5900 5901
5877 5878 5881 5883 5885 5887 5888 5889 5890 5890 5891 5891 5891 5891 5891 5891 5891 5890 5890 5890 5889 5889 5888 5888 5888 5888 5888 5888 5889 5889 5889 5890 5891 5892 5892 5893 5894 5895 5896 5896 5898 5899 5900
5874 5876 5878 5881 5883 5885 5886 5887 5888 5889 5889 5890 5890 5890 5890 5889 5889 5889 5888 5888 5888 5887 5887 5886 5886 5886 5887 5887 5887 5887 5888 5888 5889 5890 5889 5890 5892 5893 5894 5895 5897 5898 5899
5871 5873 5876 5879 5881 5883 5885 5885 5886 5887 5887 5888 5888 5888 5888 5888 5888 5887 5887 5886 5886 5886 5885 5885 5885 5885 5885 5885 5885 5886 5886 5886 5886 5885 5885 5887 5889 5892 5893 5894 5896 5897 5898
5868 5871 5873 5876 5879 5881 5883 5883 5884 5885 5886 5886 5887 5887 5887 5886 5886 5886 5886 5885 5885 5884 5884 5883 5883 5883 5884 5884 5884 5884 5884 5884 5884 5884 5882 5886 5889 5890 5892 5893 5894 5895 5897
5865 5868 5870 5873 5876 5878 5880 5881 5882 5883 5884 5884 5885 5885 5885 5885 5885 5885 5884 5884 5883 5883 5882 5882 5882 5882 5882 5882 5882 5882 5883 5883 5883 5883 5882 5884 5887 5888 5890 5891 5892 5894 5895
5864 5866 5867 5870 5873 5875 5878 5879 5880 5881 5882 5883 5883 5883 5883 5884 5884 5883 5883 5882 5882 5882 5881 5881 5881 5880 5880 5880 5880 5880 5881 5881 5880 5880 5881 5883 5885 5886 5888 5889 5891 5892 5893
5862 5865 5867 5869 5871 5873 5875 5877 5879 5880 5880 5881 5881 5882 5882 5882 5882 5882 5882 5881 5881 5880 5880 5880 5879 5879 5879 5879 5879 5878 5878 5879 5879 5879 5879 5880 5882 5884 5886 5887 5888 5890 5891
5860 5862 5864 5866 5869 5871 5873 5875 5877 5878 5879 5879 5880 5881 5881 5881 5881 5881 5881 5880 5880 5879 5879 5879 5878 5878 5878 5878 5877 5877 5877 5877 5878 5878 5879 5879 5881 5882 5883 5884 5886 5887 5888
5857 5860 5862 5864 5867 5869 5871 5873 5875 5876 5877 5878 5879 5880 5880 5880 5880 5880 5880 5879 5879 5879 5878 5878 5877 5877 5877 5876 5876 5876 5876 5876 5877 5877 5877 5878 5879 5879 5881 5882 5883 5884 5885
5853 5857 5860 5862 5865 5867 5869 5871 5873 5875 5876 5877 5878 5879 5879 5879 5879 5879 5879 5879 5879 5878 5878 5877 5877 5876 5876 5876 5875 5875 5875 5875 5875 5876 5876 5876 5877 5878 5878 5879 5880 5881 5882
5851 5854 5857 5860 5863 5865 5867 5870 5872 5873 5875 5876 5877 5877 5878 5878 5879 5879 5879 5879 5878 5878 5878 5877 5877 5876 5876 5875 5875 5875 5875 5874 5874 5875 5875 5875 5876 5876 5877 5877 5877 5878 5879
5848 5852 5855 5858 5861 5863 5866 5868 5870 5872 5874 5875 5876 5876 5877 5878 5878 5879 5879 5879 5878 5878 5878 5877 5877 5876 5876 5875 5875 5875 5874 5874 5874 5874 5874 5874 5874 5874 5875 5875 5875 5876 5876
5847 5850 5854 5856 5859 5861 5864 5867 5869 5871 5872 5874 5875 5876 5877 5877 5878 5879 5879 5879 5879 5878 5878 5877 5877 5876 5876 5875 5875 5875 5874 5874 5873 5873 5873 5873 5873 5873 5873 5873 5873 5874 5874
5845 5848 5852 5854 5857 5859 5862 5865 5867 5869 5871 5873 5874 5875 5876 5877 5878 5878 5879 5879 5879 5879 5878 5878 5878 5877 5876 5876 5875 5875 5874 5874 5873 5872 5871 5871 5871 5871 5871 5871 5871 5871 5871
5844 5847 5849 5852 5854 5857 5860 5863 5866 5868 5870 5872 5873 5875 5875 5876 5877 5878 5878 5879 5879 5879 5879 5879 5878 5878 5877 5876 5875 5875 5874 5873 5872 5871 5870 5870 5870 5869 5869 5869 5869 5868 5869
5843 5845 5847 5850 5852 5855 5858 5862 5864 5866 5868 5870 5872 5874 5875 5876 5877 5877 5878 5879 5879 5879 5879 5879 5878 5878 5877 5876 5875 5874 5873 5872 5872 5871 5870 5869 5868 5867 5867 5867 5866 5866 5866
5842 5844 5846 5848 5851 5853 5857 5860 5862 5865 5867 5869 5871 5873 5874 5875 5876 5877 5877 5878 5878 5878 5878 5878 5878 5877 5877 5876 5875 5874 5873 5872 5870 5870 5869 5868 5867 5866 5865 5864 5864 5863 5863
5841 5843 5845 5847 5850 5852 5855 5858 5861 5863 5865 5867 5869 5871 5873 5874 5875 5876 5876 5877 5877 5877 5877 5877 5877 5876 5876 5875 5874 5873 5872 5871 5869 5868 5867 5866 5865 5864 5863 5862 5861 5860 5860